Date String (YYYY-MM-DD hh:mm:ss) UTC,Instrument flags,absolute air pressure of the measurement (hPa),sample flow rate (lpm),inlet stack bypass flow (lpm),air temperature of the measurement (°C),ambient temperature measured by the external sensor (°C),aerosol sample conditioner tube jacket temperature (°C),OPC LED temperature (°C),internal box temperature (°C),relative humidity of the measurement (%),span deviation,mass concentration of particles derived from Lorenz-Mie calculation of OPC scattering (μg/m³),mass concentration of particles derived from Lorenz-Mie calculation of OPC scattering (μg/m³),mass concentration of particles derived from Lorenz-Mie calculation of OPC scattering (μg/m³)
DateTimeUTC,F1_M11,P_M11,Q1_M11,Q2_M11,T1_M11,T2_M11,T3_M11,T4_M11,T5_M11,U1_M11,ZSPAN_M11,X2_M11,X0_M11,X1_M11
2024-06-10 07:00:00,SystemResetWarning,0831.0,4.98,000.00,030.4,029.8,000.0,038.7,032.2,035.6,0000.0,0008.16,0019.64,0006.99
2024-06-10 07:01:00,SystemResetWarning,0830.9,5.00,000.00,030.4,029.8,000.0,038.7,032.2,035.5,0000.0,0008.25,0019.15,0007.02
2024-06-10 07:02:00,SystemResetWarning,0830.9,5.01,000.00,030.5,029.8,000.0,038.8,032.2,035.5,0000.0,0008.30,0018.86,0007.04
2024-06-10 07:03:00,SystemResetWarning,0830.9,5.01,000.00,030.5,029.9,000.0,038.8,032.2,035.4,0000.0,0008.38,0018.74,0007.09
2024-06-10 07:04:00,SystemResetWarning,0830.9,5.00,000.00,030.5,029.9,000.0,038.8,032.3,035.4,0000.0,0008.41,0019.19,0007.12
2024-06-10 07:05:00,SystemResetWarning,0830.9,4.99,000.00,030.5,029.9,000.0,038.8,032.3,035.3,0000.0,0008.56,0019.67,0007.16
2024-06-10 07:06:00,SystemResetWarning,0831.0,5.00,000.00,030.6,030.0,000.0,038.8,032.3,035.2,0000.0,0008.63,0021.02,0007.19
2024-06-10 07:07:00,SystemResetWarning,0831.0,5.00,000.00,030.6,030.0,000.0,038.9,032.3,035.2,0002.3,0008.75,0021.27,0007.23
2024-06-10 07:08:00,SystemResetWarning,0831.0,5.01,000.00,030.6,030.0,000.0,038.9,032.3,035.1,0002.3,0008.84,0021.34,0007.26
2024-06-10 07:09:00,SystemResetWarning,0831.0,5.00,000.00,030.6,030.0,000.0,038.9,032.4,035.1,0002.1,0008.86,0021.12,0007.29
2024-06-10 07:10:00,SystemResetWarning,0831.0,5.00,000.00,030.7,030.1,000.0,038.9,032.4,035.0,0001.5,0008.86,0020.69,0007.31
2024-06-10 07:11:00,SystemResetWarning,0831.0,5.00,000.00,030.7,030.1,000.0,038.9,032.4,035.0,0001.3,0008.87,0019.95,0007.33
2024-06-10 07:12:00,SystemResetWarning,0831.0,5.00,000.00,030.7,030.1,000.0,039.0,032.4,034.9,0001.8,0008.86,0019.67,0007.34
2024-06-10 07:13:00,SystemResetWarning,0831.0,5.00,000.00,030.7,030.1,000.0,039.0,032.5,034.9,0002.1,0008.86,0020.10,0007.36
2024-06-10 07:14:00,SystemResetWarning,0831.0,5.00,000.00,030.8,030.2,000.0,039.0,032.5,034.9,0002.3,0008.78,0020.16,0007.36
2024-06-10 07:15:00,SystemResetWarning,0831.0,4.99,000.00,030.8,030.2,000.0,039.0,032.5,034.9,0002.2,0008.77,0019.84,0007.37
2024-06-10 07:16:00,SystemResetWarning,0830.9,4.99,000.00,030.8,030.2,000.0,039.1,032.5,034.9,0002.8,0008.65,0020.69,0007.37
2024-06-10 07:17:00,SystemResetWarning,0830.9,5.01,000.00,030.8,030.2,000.0,039.1,032.5,034.9,0002.3,0008.62,0020.54,0007.37
2024-06-10 07:18:00,SystemResetWarning,0830.9,5.01,000.00,030.8,030.2,000.0,039.1,032.5,034.9,0000.0,0008.61,0020.15,0007.36
2024-06-10 07:19:00,SystemResetWarning,0830.9,4.99,000.00,030.9,030.3,000.0,039.1,032.6,034.9,0000.0,0008.57,0019.59,0007.37
2024-06-10 07:20:00,SystemResetWarning,0830.9,4.99,000.00,030.9,030.3,000.0,039.1,032.6,034.8,0000.0,0008.53,0019.41,0007.36
2024-06-10 07:21:00,SystemResetWarning,0830.9,5.00,000.00,030.9,030.3,000.0,039.2,032.6,034.8,0000.0,0008.53,0019.26,0007.35
2024-06-10 07:22:00,SystemResetWarning,0830.9,5.00,000.00,030.9,030.3,000.0,039.2,032.6,034.7,0000.0,0008.49,0019.34,0007.34
2024-06-10 07:23:00,SystemResetWarning,0830.9,5.00,000.00,030.9,030.3,000.0,039.2,032.6,034.7,0000.0,0008.43,0018.68,0007.34
2024-06-10 07:24:00,SystemResetWarning,0831.0,5.00,000.00,030.9,030.3,000.0,039.2,032.6,034.6,0000.0,0008.46,0019.08,0007.33
2024-06-10 07:25:00,SystemResetWarning,0831.0,5.00,000.00,031.0,030.4,000.0,039.2,032.6,034.5,0000.0,0008.48,0018.65,0007.33
2024-06-10 07:26:00,SystemResetWarning,0831.0,4.99,000.00,031.0,030.4,000.0,039.2,032.7,034.6,0000.0,0008.51,0019.01,0007.33
2024-06-10 07:27:00,SystemResetWarning,0831.0,4.99,000.00,031.0,030.4,000.0,039.3,032.7,034.6,0000.0,0008.54,0017.82,0007.34
2024-06-10 07:28:00,SystemResetWarning,0831.0,5.01,000.00,031.0,030.4,000.0,039.3,032.7,034.5,0000.0,0008.60,0016.92,0007.35
2024-06-10 07:29:00,SystemResetWarning,0831.1,5.00,000.00,031.0,030.4,000.0,039.3,032.7,034.4,0000.0,0008.57,0015.96,0007.36
2024-06-10 07:30:00,SystemResetWarning,0831.0,5.01,000.00,031.0,030.4,000.0,039.3,032.7,034.3,0000.0,0008.51,0016.35,0007.37
2024-06-10 07:31:00,SystemResetWarning,0831.1,5.01,000.00,031.1,030.4,000.0,039.3,032.7,034.3,0000.0,0008.51,0015.81,0007.39
2024-06-10 07:32:00,SystemResetWarning,0831.1,5.00,000.00,031.1,030.4,000.0,039.3,032.7,034.2,0000.0,0008.53,0015.81,0007.43
2024-06-10 07:33:00,SystemResetWarning,0831.1,4.99,000.00,031.1,030.5,000.0,039.4,032.7,034.2,0000.0,0008.57,0015.81,0007.45
2024-06-10 07:34:00,SystemResetWarning,0831.1,5.00,000.00,031.1,030.5,000.0,039.4,032.7,034.2,0000.0,0008.63,0015.88,0007.47
2024-06-10 07:35:00,SystemResetWarning,0831.1,5.00,000.00,031.1,030.5,000.0,039.4,032.8,034.1,0000.0,0008.63,0015.76,0007.50
2024-06-10 07:36:00,SystemResetWarning,0831.1,5.00,000.00,031.1,030.5,000.0,039.4,032.8,034.0,0000.0,0008.64,0015.98,0007.53
2024-06-10 07:37:00,SystemResetWarning,0831.1,5.00,000.00,031.1,030.5,000.0,039.4,032.8,034.0,0000.0,0008.70,0016.36,0007.55
2024-06-10 07:38:00,SystemResetWarning,0831.1,5.01,000.00,031.1,030.5,000.0,039.4,032.8,033.9,0000.0,0008.70,0016.62,0007.57
2024-06-10 07:39:00,SystemResetWarning,0831.1,5.00,000.00,031.2,030.5,000.0,039.5,032.8,033.9,0000.0,0008.67,0016.37,0007.59
2024-06-10 07:40:00,SystemResetWarning,0831.0,4.99,000.00,031.0,028.7,000.0,039.5,031.9,034.2,0000.0,0008.67,0016.25,0007.62
2024-06-10 07:41:00,SystemResetWarning,0830.9,5.01,000.00,030.5,026.8,000.0,039.5,031.0,035.2,0000.0,0008.70,0015.68,0007.64
2024-06-10 07:42:00,SystemResetWarning,0830.9,5.01,000.00,030.2,026.6,000.0,039.4,030.7,035.9,0000.0,0008.77,0015.72,0007.67
2024-06-10 07:43:00,SystemResetWarning,0830.9,5.00,000.00,030.0,027.0,000.0,039.2,030.9,036.1,0000.0,0008.78,0016.04,0007.69
2024-06-10 07:44:00,SystemResetWarning,0830.9,5.00,000.00,030.0,027.4,000.0,039.1,031.2,036.2,0000.0,0008.80,0016.57,0007.71
2024-06-10 07:45:00,SystemResetWarning,0830.9,5.00,000.00,030.0,027.8,000.0,039.0,031.4,036.1,0000.0,0008.86,0016.86,0007.76
2024-06-10 07:46:00,SystemResetWarning,0831.0,4.99,000.00,030.0,028.2,000.0,038.9,031.5,036.1,0000.0,0008.84,0016.46,0007.77
2024-06-10 07:47:00,SystemResetWarning,0830.9,5.00,000.00,030.0,028.5,000.0,038.8,031.6,036.0,0000.0,0008.86,0016.32,0007.79
2024-06-10 07:48:00,SystemResetWarning,0830.9,5.01,000.00,030.1,028.7,000.0,038.8,031.7,036.0,0000.0,0008.78,0015.39,0007.81
2024-06-10 07:49:00,SystemResetWarning,0830.9,5.01,000.00,030.1,028.9,000.0,038.7,031.8,035.9,0000.0,0008.73,0014.94,0007.82
2024-06-10 07:50:00,SystemResetWarning,0831.0,4.99,000.00,030.1,029.1,000.0,038.7,031.8,035.9,0000.0,0008.71,0014.69,0007.84
2024-06-10 07:51:00,SystemResetWarning,0830.9,4.99,000.00,030.2,029.2,000.0,038.7,031.9,035.8,0000.0,0008.72,0014.79,0007.85
2024-06-10 07:52:00,SystemResetWarning,0831.0,5.00,000.00,030.2,029.3,000.0,038.7,031.9,035.8,0000.0,0008.78,0014.84,0007.87
2024-06-10 07:53:00,SystemResetWarning,0831.0,5.00,000.00,030.2,029.4,000.0,038.7,031.9,035.6,0000.0,0008.79,0014.79,0007.87
2024-06-10 07:54:00,SystemResetWarning,0831.0,5.00,000.00,030.3,029.5,000.0,038.7,032.0,035.5,0000.0,0008.75,0014.71,0007.87
2024-06-10 07:55:00,SystemResetWarning,0830.9,5.00,000.00,030.3,029.6,000.0,038.7,032.0,035.5,0000.0,0008.75,0014.67,0007.88
2024-06-10 07:56:00,SystemResetWarning,0830.9,5.00,000.00,030.3,029.6,000.0,038.7,032.1,035.4,0000.0,0008.71,0014.19,0007.86
2024-06-10 07:57:00,SystemResetWarning,0830.9,5.00,000.00,030.4,029.7,000.0,038.7,032.1,035.4,0000.0,0008.74,0014.29,0007.88
2024-06-10 07:58:00,SystemResetWarning,0830.9,5.00,000.00,030.4,029.8,000.0,038.7,032.2,035.4,0000.0,0008.76,0014.49,0007.89
2024-06-10 07:59:00,SystemResetWarning,0830.9,5.00,000.00,030.4,029.8,000.0,038.8,032.2,035.3,0000.0,0008.83,0014.81,0007.91
